"2010-10-14 00:00:00",245101,0.067,57.19,3.229,0.04,14.06,105.6457,13.73,14.57,36.67,0,110.5,13.29,14.53,19.2
"2010-10-14 00:00:30",245102,0.066,55.16,4.13,0.036,14.18,105.6457,13.73,14.57,36.7,0,110.5,13.29,14.53,17.2
"2010-10-14 00:01:00",245103,0.06,49.23,13.36,0.037,14.36,105.6457,13.73,14.58,36.82,0,110.5,13.29,14.53,11.2
"2010-10-14 00:01:30",245104,0.123,66.62,5.952,0.052,14.4,105.6457,13.73,14.58,36.87,0,110.5,13.29,14.53,28.6
"2010-10-14 00:02:00",245105,0.239,97.2,6.984,0.075,14.62,105.6457,13.73,14.58,36.82,0,110.5,13.29,14.53,59.2
"2010-10-14 00:02:30",245106,0.297,112.9,4.839,0.043,14.51,105.6457,13.73,14.57,36.59,0,110.5,13.29,14.53,74.9
"2010-10-14 00:03:00",245107,0.252,122.1,4.661,0.035,14.6,105.6457,13.73,14.57,36.39,0,110.5,13.29,14.53,84.1
"2010-10-14 00:03:30",245108,0.244,124.1,3.816,0.04,14.65,105.6457,13.73,14.58,36.35,0,110.5,13.3,14.53,86.1
"2010-10-14 00:04:00",245109,0.167,118.8,3.736,0.05,14.78,105.6457,13.73,14.58,36.28,0,110.5,13.3,14.53,80.8
"2010-10-14 00:04:30",245110,0.069,126.9,5.825,0.039,14.87,105.6457,13.73,14.58,36.31,0,110.5,13.3,14.53,88.9
"2010-10-14 00:05:00",245111,0.249,137.2,9.06,0.073,14.89,105.6457,13.73,14.58,36.37,0,110.5,13.3,14.53,99.2
"2010-10-14 00:05:30",245112,0.24,155.9,7.937,0.046,14.94,105.6457,13.73,14.59,36.5,0,110.5,13.3,14.53,117.9
"2010-10-14 00:06:00",245113,0.195,156.8,5.742,0.043,14.96,105.6457,13.73,14.6,36.51,0,110.5,13.3,14.53,118.8
"2010-10-14 00:06:30",245114,0.253,166.1,9.82,0.058,14.94,105.6457,13.73,14.61,36.57,0,110.5,13.3,14.53,128.1
"2010-10-14 00:07:00",245115,0.175,172.3,4.713,0.054,14.93,105.6457,13.73,14.6,36.57,0,110.5,13.3,14.53,134.3
"2010-10-14 00:07:30",245116,0.146,171,6.473,0.043,15,105.6457,13.73,14.6,36.56,0,110.5,13.3,14.53,133.0
"2010-10-14 00:08:00",245117,0.108,174.5,13.33,0.053,15.01,105.6457,13.73,14.6,36.55,0,110.5,13.3,14.53,136.5
"2010-10-14 00:08:30",245118,0.253,149.9,10.92,0.072,15.05,105.6457,13.73,14.59,36.49,0,110.5,13.3,14.53,111.9
"2010-10-14 00:09:00",245119,0.205,152.6,7.28,0.057,15.03,105.6457,13.73,14.59,36.49,0,110.5,13.3,14.53,114.6
"2010-10-14 00:09:30",245120,0.192,141,4.776,0.059,15,105.6457,13.73,14.59,36.53,0,110.5,13.3,14.53,103.0
"2010-10-14 00:10:00",245121,0.293,140,2.554,0.038,15.13,105.6446,13.72,14.59,36.54,0,110.5,13.31,14.52,102.0
"2010-10-14 00:10:30",245122,0.712,138.7,5.086,1.082,15.64,105.6451,13.72,14.69,36.69,0,110.5,13.27,14.52,100.7
"2010-10-14 00:11:00",245123,2.156,147,6.002,1.271,18.58,105.6418,13.72,14.77,36.91,0,110.5,13.27,14.52,109.0
"2010-10-14 00:11:30",245124,0.321,135,5.631,0.525,14.45,105.6316,13.69,14.58,36.73,0,110.5,13.27,14.49,97.0
"2010-10-14 00:12:00",245125,0.235,133.6,3.172,0.05,13.8,105.6243,13.67,14.58,36.69,0,110.5,13.3,14.47,95.6
"2010-10-14 00:12:30",245126,0.176,131.1,2.462,0.036,13.5,105.6215,13.66,14.57,36.77,0,110.5,13.3,14.46,93.1
"2010-10-14 00:13:00",245127,0.128,131.1,3.388,0.027,13.47,105.6195,13.66,14.57,36.73,0,110.5,13.3,14.46,93.1
"2010-10-14 00:13:30",245128,0.052,131.9,7.131,0.041,13.54,105.6139,13.64,14.57,36.69,0,110.5,13.31,14.44,93.9
"2010-10-14 00:14:00",245129,0.034,125.1,3.172,0.03,13.67,105.6154,13.65,14.58,36.73,0,110.5,13.31,14.45,87.1
"2010-10-14 00:14:30",245130,0.006,116.2,4.618,0.027,13.82,105.6184,13.66,14.57,36.76,0,110.5,13.3,14.46,78.2
"2010-10-14 00:15:00",245131,0.963,126.8,6.602,1.279,15.32,105.6229,13.67,14.59,36.76,0,110.5,13.27,14.47,88.8
"2010-10-14 00:15:30",245132,0.48,104.1,11.63,1.084,15.55,105.6247,13.67,14.75,36.96,0,110.5,13.27,14.47,66.1
"2010-10-14 00:16:00",245133,0.675,115.5,12.57,1.209,15.45,105.63,13.69,14.65,36.85,0,110.5,13.26,14.49,77.5
"2010-10-14 00:16:30",245134,0.741,111.2,13.5,1.185,14.62,105.6318,13.69,14.59,36.81,0,110.5,13.26,14.49,73.2
"2010-10-14 00:17:00",245135,0.186,95.5,7.991,0.674,14.12,105.6363,13.7,14.68,36.91,0,110.4,13.27,14.50,57.5
"2010-10-14 00:17:30",245136,0.016,97,5.638,0.031,12.61,105.639,13.71,14.55,36.8,0,110.4,13.3,14.51,59.0
"2010-10-14 00:18:00",245137,0.026,101.9,5.014,0.014,12.42,105.6393,13.71,14.54,36.8,0,110.5,13.3,14.51,63.9
"2010-10-14 00:18:30",245138,0.029,107.5,1.817,0.002,12.46,105.642,13.72,14.55,36.82,0,110.5,13.3,14.52,69.5
"2010-10-14 00:19:00",245139,0.003,100.1,2.567,0.033,12.69,105.6432,13.72,14.54,36.79,0,110.4,13.3,14.52,62.1
"2010-10-14 00:19:30",245140,0.025,95.8,3.136,0.019,12.87,105.6458,13.73,14.54,36.82,0,110.4,13.3,14.53,57.8
"2010-10-14 00:20:00",245141,-0.037,96,2.25,0.026,13.12,105.647,13.73,14.54,36.79,0,110.4,13.31,14.53,58.0
"2010-10-14 00:20:30",245142,-0.027,92.4,3.547,0.031,13.39,105.6456,13.73,14.54,36.78,0,110.4,13.31,14.53,54.4
"2010-10-14 00:21:00",245143,-0.065,82.8,6.858,0.03,13.74,105.6431,13.72,14.54,36.77,0,110.4,13.32,14.52,44.8
"2010-10-14 00:21:30",245144,-0.037,68.63,4.329,0.023,13.75,105.6434,13.72,14.56,36.78,0,110.4,13.32,14.52,30.6
"2010-10-14 00:22:00",245145,0.01,71.42,2.777,0.035,13.95,105.6423,13.72,14.54,36.84,0,110.4,13.32,14.52,33.4
"2010-10-14 00:22:30",245146,-0.05,59.38,4.846,0.051,14.12,105.6411,13.71,14.54,36.83,0,110.4,13.32,14.51,21.4
"2010-10-14 00:23:00",245147,-0.054,46.35,2.799,0.031,14.08,105.6358,13.7,14.54,36.82,0,110.4,13.32,14.50,8.3
"2010-10-14 00:23:30",245148,-0.074,38.93,5.109,0.035,14.19,105.6358,13.7,14.55,36.81,0,110.4,13.32,14.50,0.9
"2010-10-14 00:24:00",245149,-0.119,32.53,10.43,0.011,14.35,105.6456,13.73,14.55,36.83,0,110.4,13.32,14.53,354.5
"2010-10-14 00:24:30",245150,-0.014,40.39,8.44,0.055,14.39,105.6476,13.73,14.56,36.86,0,110.4,13.32,14.53,2.4
"2010-10-14 00:25:00",245151,0.086,57.36,6.034,0.065,14.46,105.6411,13.71,14.54,36.9,0,110.4,13.32,14.51,19.4
"2010-10-14 00:25:30",245152,0.337,59.74,4.589,0.046,14.43,105.6211,13.66,14.54,36.98,0,110.4,13.32,14.46,21.7
"2010-10-14 00:26:00",245153,0.425,73.58,2.878,0.069,14.65,105.6138,13.64,14.54,36.99,0,110.4,13.32,14.44,35.6
"2010-10-14 00:26:30",245154,0.716,72.28,4.956,0.963,15.17,105.6138,13.64,14.52,37.02,0,110.4,13.28,14.44,34.3
"2010-10-14 00:27:00",245155,1.376,70.49,5.206,1.388,16.78,105.6138,13.64,14.69,37.17,0,110.4,13.28,14.44,32.5
"2010-10-14 00:27:30",245156,0.771,77.29,5.284,0.545,14.93,105.6079,13.63,14.56,37.09,0,110.4,13.28,14.43,39.3
"2010-10-14 00:28:00",245157,1.789,82.6,8.64,1.266,16.43,105.5932,13.59,14.6,37.04,0,110.4,13.28,14.39,44.6
"2010-10-14 00:28:30",245158,1.015,75.18,3.902,0.277,14.4,105.58,13.56,14.62,36.81,0,110.4,13.32,14.36,37.2
"2010-10-14 00:29:00",245159,0.858,84.4,2.156,0.062,13.94,105.5803,13.56,14.5,36.67,0,110.4,13.32,14.36,46.4
"2010-10-14 00:29:30",245160,0.894,88.6,3.586,0.054,13.83,105.5809,13.56,14.47,36.74,0,110.4,13.32,14.36,50.6
"2010-10-14 00:30:00",245161,2.423,93.3,7.213,1.347,16.72,105.5826,13.56,14.72,36.97,0,110.4,13.28,14.36,55.3
"2010-10-14 00:30:30",245162,2.6,99.9,8,1.378,16.08,105.5826,13.56,14.63,36.93,0,110.4,13.29,14.36,61.9
"2010-10-14 00:31:00",245163,1.317,95.1,2.978,0.077,12.76,105.5892,13.58,14.46,36.68,0,110.4,13.32,14.38,57.1
"2010-10-14 00:31:30",245164,1.286,96.8,2.977,0.059,12.45,105.5925,13.59,14.44,36.71,0,110.4,13.32,14.39,58.8
"2010-10-14 00:32:00",245165,1.268,95.2,1.9,0.062,12.62,105.5972,13.6,14.44,36.74,0,110.4,13.32,14.40,57.2
"2010-10-14 00:32:30",245166,1.22,97.9,1.322,0.061,12.88,105.5962,13.6,14.43,36.73,0,110.4,13.32,14.40,59.9
"2010-10-14 00:33:00",245167,1.131,97.6,1.465,0.047,13.13,105.5996,13.61,14.44,36.73,0,110.4,13.32,14.41,59.6
"2010-10-14 00:33:30",245168,1.157,93.9,2.513,0.043,13.52,105.5928,13.59,14.44,36.68,0,110.4,13.32,14.39,55.9
"2010-10-14 00:34:00",245169,1.191,85.9,2.255,0.037,13.88,105.5967,13.6,14.43,36.67,0,110.4,13.32,14.40,47.9
"2010-10-14 00:34:30",245170,1.11,86.6,1.488,0.071,14.09,105.5877,13.58,14.42,36.63,0,110.4,13.32,14.38,48.6
"2010-10-14 00:35:00",245171,1.136,84.6,2.605,0.04,14.24,105.5832,13.57,14.42,36.63,0,110.4,13.32,14.36,46.6
"2010-10-14 00:35:30",245172,1.193,86.7,3.189,0.051,14.54,105.5807,13.56,14.42,36.6,0,110.4,13.32,14.36,48.7
"2010-10-14 00:36:00",245173,1.443,89.6,4.112,0.872,14.87,105.5819,13.56,14.42,36.6,0,110.4,13.29,14.36,51.6
"2010-10-14 00:36:30",245174,2.353,94.2,5.234,1.333,17.13,105.5819,13.56,14.56,36.69,0,110.4,13.29,14.36,56.2
"2010-10-14 00:37:00",245175,1.258,88.4,1.548,0.054,15.4,105.5819,13.56,14.42,36.58,0,110.4,13.33,14.36,50.4
"2010-10-14 00:37:30",245176,1.093,91.3,2.917,0.235,14.92,105.5819,13.56,14.46,36.82,0,110.4,13.29,14.36,53.3
"2010-10-14 00:38:00",245177,1.985,101.3,7.963,1.35,16.47,105.5819,13.56,14.49,36.98,0,110.4,13.29,14.36,63.3
"2010-10-14 00:38:30",245178,1.998,103.5,6.95,1.286,16.25,105.5819,13.56,14.46,36.96,0,110.3,13.29,14.36,65.5
"2010-10-14 00:39:00",245179,2.023,115.4,7.95,1.383,15.97,105.5819,13.56,14.63,37.15,0,110.3,13.29,14.36,77.4
"2010-10-14 00:39:30",245180,1.458,111.2,5.336,1.245,13.99,105.5819,13.56,14.41,37,0,110.4,13.3,14.36,73.2
"2010-10-14 00:40:00",245181,0.685,110,3.632,0.049,12.47,105.5819,13.56,14.42,36.92,0,110.3,13.33,14.36,72.0
"2010-10-14 00:40:30",245182,0.644,100,2.321,0.061,12.26,105.5819,13.56,14.43,36.9,0,110.3,13.33,14.36,62.0
"2010-10-14 00:41:00",245183,0.682,102.4,2.95,0.048,12.31,105.5819,13.56,14.41,36.91,0,110.3,13.33,14.36,64.4
"2010-10-14 00:41:30",245184,0.583,95,3.511,0.065,12.68,105.5819,13.56,14.43,36.94,0,110.3,13.33,14.36,57.0
"2010-10-14 00:42:00",245185,0.606,100.9,2.125,0.03,12.81,105.5819,13.56,14.43,36.92,0,110.3,13.33,14.36,62.9
"2010-10-14 00:42:30",245186,0.627,98.7,1.774,0.04,13.09,105.5819,13.56,14.43,36.91,0,110.3,13.33,14.36,60.7
"2010-10-14 00:43:00",245187,0.635,103.1,2.059,0.03,13.3,105.5819,13.56,14.44,36.9,0,110.3,13.34,14.36,65.1
"2010-10-14 00:43:30",245188,0.675,102.7,2.242,0.03,13.52,105.5819,13.56,14.44,36.9,0,110.3,13.34,14.36,64.7
"2010-10-14 00:44:00",245189,0.61,106.2,1.881,0.028,13.78,105.5819,13.56,14.45,36.93,0,110.3,13.34,14.36,68.2
"2010-10-14 00:44:30",245190,0.62,106.9,1.403,0.03,14.04,105.5819,13.56,14.44,36.9,0,110.3,13.34,14.36,68.9
"2010-10-14 00:45:00",245191,0.58,107.8,2.145,0.041,14.33,105.5819,13.56,14.44,36.91,0,110.3,13.34,14.36,69.8
"2010-10-14 00:45:30",245192,0.58,114.5,2.591,0.045,14.56,105.5819,13.56,14.45,36.91,0,110.3,13.34,14.36,76.5
"2010-10-14 00:46:00",245193,0.502,117.8,2.428,0.027,14.68,105.5828,13.56,14.46,36.92,0,110.3,13.34,14.36,79.8
"2010-10-14 00:46:30",245194,0.439,120.6,3.116,0.039,14.71,105.5831,13.57,14.46,36.9,0,110.3,13.35,14.36,82.6
"2010-10-14 00:47:00",245195,1.429,129.4,9.7,1.294,16.76,105.5845,13.57,14.55,36.97,0,110.3,13.31,14.37,91.4
"2010-10-14 00:47:30",245196,1.646,126.7,6.915,1.372,17.05,105.5851,13.57,14.6,37.01,0,110.3,13.31,14.37,88.7
"2010-10-14 00:48:00",245197,0.624,125.6,4.941,0.488,15.18,105.5863,13.57,14.56,36.99,0,110.3,13.34,14.37,87.6
"2010-10-14 00:48:30",245198,1.382,132.7,6.235,1.323,15.74,105.5872,13.58,14.55,36.97,0,110.3,13.3,14.38,94.7
"2010-10-14 00:49:00",245199,0.765,133.2,5.617,0.944,14.97,105.5905,13.58,14.62,37.06,0,110.3,13.3,14.38,95.2
"2010-10-14 00:49:30",245200,1.849,139.3,6.97,1.325,15.99,105.5914,13.59,14.58,36.98,0,110.3,13.3,14.39,101.3
"2010-10-14 00:50:00",245201,0.542,132.8,4.766,0.488,13.98,105.5953,13.6,14.62,37.03,0,110.3,13.33,14.40,94.8
"2010-10-14 00:50:30",245202,1.552,139.1,7.181,1.352,14.5,105.5997,13.61,14.49,36.9,0,110.3,13.3,14.41,101.1
"2010-10-14 00:51:00",245203,0.344,140.8,4.475,0.026,12.43,105.6048,13.62,14.46,36.85,0,110.3,13.33,14.42,102.8
"2010-10-14 00:51:30",245204,0.357,149.5,2.383,0.035,12.28,105.6063,13.62,14.48,36.85,0,110.3,13.33,14.42,111.5
"2010-10-14 00:52:00",245205,0.398,155.8,2.419,0.035,12.45,105.6099,13.63,14.48,36.78,0,110.3,13.33,14.43,117.8
"2010-10-14 00:52:30",245206,0.389,153.7,3.761,0.036,12.6,105.6151,13.65,14.49,36.75,0,110.3,13.34,14.45,115.7
"2010-10-14 00:53:00",245207,0.294,143.4,3.438,0.053,12.81,105.6209,13.66,14.5,36.76,0,110.3,13.34,14.46,105.4
"2010-10-14 00:53:30",245208,0.309,137.5,2.12,0.05,13.07,105.6246,13.67,14.51,36.77,0,110.3,13.35,14.47,99.5
"2010-10-14 00:54:00",245209,0.378,138.5,2.5,0.04,13.33,105.6215,13.66,14.5,36.76,0,110.3,13.35,14.46,100.5
"2010-10-14 00:54:30",245210,0.432,122.9,6.067,0.033,13.39,105.6184,13.66,14.51,36.75,0,110.3,13.35,14.46,84.9
"2010-10-14 00:55:00",245211,0.392,120.4,1.845,0.037,13.53,105.6176,13.65,14.51,36.77,0,110.3,13.35,14.45,82.4
"2010-10-14 00:55:30",245212,0.403,122.3,1.246,0.031,13.8,105.6176,13.65,14.5,36.79,0,110.3,13.35,14.45,84.3
"2010-10-14 00:56:00",245213,0.407,122,1.638,0.031,14.06,105.6176,13.65,14.5,36.8,0,110.3,13.35,14.45,84.0
"2010-10-14 00:56:30",245214,0.385,117.5,1.877,0.039,14.3,105.6176,13.65,14.51,36.79,0,110.3,13.35,14.45,79.5
"2010-10-14 00:57:00",245215,0.35,114.7,1.907,0.002,14.43,105.6176,13.65,14.5,36.8,0,110.3,13.35,14.45,76.7
"2010-10-14 00:57:30",245216,0.364,113.7,0.929,0.024,14.58,105.6176,13.65,14.5,36.79,0,110.3,13.36,14.45,75.7
"2010-10-14 00:58:00",245217,0.401,111.8,1.733,0.034,14.69,105.6176,13.65,14.5,36.8,0,110.3,13.36,14.45,73.8
"2010-10-14 00:58:30",245218,0.488,107.3,3.372,0.557,14.8,105.6176,13.65,14.51,36.83,0,110.3,13.32,14.45,69.3
"2010-10-14 00:59:00",245219,1.445,107.4,6.62,1.321,17.24,105.6176,13.65,14.63,36.95,0,110.3,13.32,14.45,69.4
"2010-10-14 00:59:30",245220,0.421,100.3,1.666,0.017,15.2,105.6176,13.65,14.49,36.88,0,110.3,13.36,14.45,62.3
"2010-10-14 01:00:00",245221,0.396,98.6,3.208,0.047,15.01,105.6055,13.62,14.54,36.93,0,110.3,13.36,14.42,60.6
"2010-10-14 01:00:30",245222,1.389,102.6,9.11,1.308,16.79,105.599,13.61,14.61,37.01,0,110.3,13.32,14.41,64.6
"2010-10-14 01:01:00",245223,0.978,96.9,5.893,1.086,16.11,105.5919,13.59,14.72,37.16,0,110.3,13.32,14.39,58.9
"2010-10-14 01:01:30",245224,0.997,95.3,5.618,1.104,14.83,105.5846,13.57,14.49,36.95,0,110.3,13.32,14.37,57.3
"2010-10-14 01:02:00",245225,0.742,94.2,4.727,0.946,13.83,105.584,13.57,14.52,37,0,110.3,13.32,14.37,56.2
"2010-10-14 01:02:30",245226,1.596,94.6,8.14,1.343,15.3,105.5837,13.57,14.6,37.02,0,110.3,13.32,14.37,56.6
"2010-10-14 01:03:00",245227,0.322,83.9,2.934,0.032,12.29,105.5837,13.57,14.45,36.87,0,110.3,13.36,14.37,45.9
"2010-10-14 01:03:30",245228,0.248,78.18,0.989,0.036,12.07,105.5837,13.57,14.48,36.86,0,110.3,13.36,14.37,40.2
"2010-10-14 01:04:00",245229,0.236,74.23,2.157,0.028,12.11,105.5837,13.57,14.47,36.9,0,110.3,13.36,14.37,36.2
"2010-10-14 01:04:30",245230,0.251,69.72,1.604,0.026,12.3,105.5837,13.57,14.45,36.96,0,110.3,13.35,14.37,31.7
"2010-10-14 01:05:00",245231,0.261,69.34,1.31,0.028,12.5,105.5837,13.57,14.45,36.97,0,110.3,13.35,14.37,31.3
"2010-10-14 01:05:30",245232,0.175,79.28,3.322,0.04,12.91,105.5844,13.57,14.44,36.97,0,110.3,13.35,14.37,41.3
"2010-10-14 01:06:00",245233,0.131,80.1,2.532,0.021,13.2,105.5855,13.57,14.45,36.95,0,110.3,13.35,14.37,42.1
"2010-10-14 01:06:30",245234,0.123,77.65,2.372,0.024,13.59,105.5861,13.57,14.45,36.94,0,110.3,13.35,14.37,39.7
"2010-10-14 01:07:00",245235,0.08,76.19,2.687,0.031,13.95,105.5903,13.58,14.45,36.94,0,110.3,13.35,14.38,38.2
"2010-10-14 01:07:30",245236,0.045,76.73,3.666,0.031,14.21,105.5942,13.59,14.45,36.92,0,110.3,13.35,14.39,38.7
"2010-10-14 01:08:00",245237,0.108,77.82,2.597,0.021,14.27,105.5948,13.6,14.45,36.9,0,110.3,13.36,14.39,39.8
"2010-10-14 01:08:30",245238,0.141,84.7,3.515,0.013,14.44,105.601,13.61,14.46,36.9,0,110.3,13.36,14.41,46.7
"2010-10-14 01:09:00",245239,0.134,89.8,2.37,0.029,14.61,105.6028,13.62,14.47,36.9,0,110.3,13.36,14.42,51.8
"2010-10-14 01:09:30",245240,0.114,88.9,2.565,0.022,14.76,105.6079,13.63,14.45,36.89,0,110.3,13.36,14.43,50.9
"2010-10-14 01:10:00",245241,0.152,95.5,2.16,0.032,14.75,105.6088,13.63,14.46,36.87,0,110.3,13.36,14.43,57.5
"2010-10-14 01:10:30",245242,0.142,103.9,3.492,0.005,14.76,105.615,13.65,14.47,36.86,0,110.3,13.36,14.45,65.9
"2010-10-14 01:11:00",245243,0.203,102.1,2.36,0.029,14.8,105.6171,13.65,14.47,36.87,0,110.3,13.37,14.45,64.1
"2010-10-14 01:11:30",245244,1.108,105.8,8.97,1.282,16.41,105.618,13.65,14.51,36.91,0,110.3,13.33,14.45,67.8
"2010-10-14 01:12:00",245245,0.712,109.3,5.978,0.988,16.1,105.6178,13.65,14.62,36.98,0,110.3,13.33,14.45,71.3
"2010-10-14 01:12:30",245246,1.004,108.8,6.942,1.181,16.14,105.6116,13.64,14.45,36.8,0,110.3,13.33,14.44,70.8
"2010-10-14 01:13:00",245247,0.393,106.3,1.341,0.035,14.89,105.602,13.61,14.46,36.71,0,110.3,13.37,14.41,68.3
"2010-10-14 01:13:30",245248,1.003,107.5,6.856,1.117,16.29,105.5899,13.58,14.55,36.77,0,110.3,13.33,14.38,69.5
"2010-10-14 01:14:00",245249,2.007,112.6,6.717,1.282,17.59,105.5859,13.57,14.65,36.84,0,110.3,13.33,14.37,74.6
"2010-10-14 01:14:30",245250,1.053,106.8,6.615,1.166,15.05,105.5856,13.57,14.55,36.73,0,110.3,13.33,14.37,68.8
"2010-10-14 01:15:00",245251,1.539,114.5,7.322,1.312,15.35,105.5859,13.57,14.62,36.9,0,110.3,13.33,14.37,76.5
"2010-10-14 01:15:30",245252,0.225,111.5,0.946,0.034,12.48,105.5856,13.57,14.45,36.75,0,110.3,13.37,14.37,73.5
"2010-10-14 01:16:00",245253,0.162,107.8,1.68,0.037,12.11,105.5856,13.57,14.44,36.79,0,110.3,13.37,14.37,69.8
"2010-10-14 01:16:30",245254,0.043,106.7,3.767,0.035,11.96,105.5856,13.57,14.44,36.82,0,110.3,13.37,14.37,68.7
"2010-10-14 01:17:00",245255,0.014,97.4,2.024,0.019,12.03,105.5856,13.57,14.43,36.85,0,110.3,13.37,14.37,59.4
"2010-10-14 01:17:30",245256,-0.019,91.2,2.536,0.038,12.26,105.5856,13.57,14.44,36.83,0,110.3,13.37,14.37,53.2
"2010-10-14 01:18:00",245257,-0.057,84.6,2.644,0,12.43,105.5856,13.57,14.44,36.83,0,110.3,13.37,14.37,46.6
"2010-10-14 01:18:30",245258,-0.057,72.01,3.098,0,12.47,105.5856,13.57,14.44,36.82,0,110.2,13.37,14.37,34.0
"2010-10-14 01:19:00",245259,-0.108,59.18,5.857,0.029,12.57,105.5856,13.57,14.43,36.88,0,110.2,13.37,14.37,21.2
"2010-10-14 01:19:30",245260,-0.087,48.5,2.463,0.034,12.69,105.5851,13.57,14.44,36.91,0,110.2,13.37,14.37,10.5
"2010-10-14 01:20:00",245261,-0.059,42.68,2.141,0.012,12.93,105.5653,13.52,14.42,36.95,0,110.2,13.38,14.32,4.7
"2010-10-14 01:20:30",245262,-0.087,37.01,4.419,0.029,13.32,105.5515,13.48,14.41,37.01,0,110.2,13.38,14.28,359.0
"2010-10-14 01:21:00",245263,-0.113,34.57,1.509,0.003,13.32,105.5227,13.41,14.38,37.11,0,110.2,13.37,14.21,356.6
"2010-10-14 01:21:30",245264,-0.058,39.63,3.29,0.023,13.5,105.5075,13.37,14.35,37.23,0,110.2,13.37,14.17,1.6
"2010-10-14 01:22:00",245265,-0.053,46.86,2.349,0.017,13.72,105.4982,13.35,14.3,37.29,0,110.2,13.37,14.15,8.9
"2010-10-14 01:22:30",245266,-0.044,53.16,2.684,0.004,13.89,105.5177,13.4,14.3,37.31,0,110.2,13.37,14.20,15.2
"2010-10-14 01:23:00",245267,-0.041,55.26,1.876,0.004,14.1,105.5301,13.43,14.31,37.25,0,110.2,13.37,14.23,17.3
"2010-10-14 01:23:30",245268,-0.046,67.77,3.984,0.003,14.44,105.5518,13.48,14.33,37.19,0,110.2,13.37,14.28,29.8
"2010-10-14 01:24:00",245269,0.005,76.85,3.644,0.033,14.75,105.5518,13.48,14.35,37.1,0,110.2,13.37,14.28,38.8
"2010-10-14 01:24:30",245270,0.015,83.2,2.918,0.028,14.88,105.5605,13.51,14.37,37.04,0,110.2,13.37,14.31,45.2
"2010-10-14 01:25:00",245271,0.028,87.1,0.701,0.002,14.94,105.5811,13.56,14.37,37,0,110.2,13.37,14.36,49.1
"2010-10-14 01:25:30",245272,0.028,89.8,1.496,0.002,15.03,105.5856,13.57,14.38,36.96,0,110.2,13.37,14.37,51.8
"2010-10-14 01:26:00",245273,0.024,93,2.014,0.005,15.07,105.5856,13.57,14.4,36.89,0,110.2,13.38,14.37,55.0
"2010-10-14 01:26:30",245274,0.392,93.3,4.431,0.949,15.92,105.5856,13.57,14.41,36.87,0,110.2,13.34,14.37,55.3
"2010-10-14 01:27:00",245275,0.628,94.2,5.355,1.117,16.59,105.5859,13.57,14.57,36.97,0,110.2,13.34,14.37,56.2
"2010-10-14 01:27:30",245276,0.686,90.2,7.076,1.156,17.06,105.5856,13.57,14.43,36.81,0,110.2,13.34,14.37,52.2
"2010-10-14 01:28:00",245277,0.095,80.2,2.305,0.012,15.61,105.5856,13.57,14.43,36.78,0,110.2,13.38,14.37,42.2
"2010-10-14 01:28:30",245278,0.186,77.35,1.589,0.04,15.02,105.5871,13.58,14.44,36.77,0,110.2,13.38,14.37,39.3
"2010-10-14 01:29:00",245279,0.246,78.42,0.856,0.031,14.97,105.5886,13.58,14.48,36.8,0,110.2,13.38,14.38,40.4
"2010-10-14 01:29:30",245280,1.676,82.3,7.069,1.376,17.18,105.5907,13.58,14.61,36.88,0,110.2,13.34,14.38,44.3
"2010-10-14 01:30:00",245281,0.909,75.96,4.796,1.096,14.61,105.5937,13.59,14.56,36.83,0,110.2,13.34,14.39,38.0
"2010-10-14 01:30:30",245282,1.436,77.67,8.59,1.304,15.23,105.5955,13.6,14.58,36.88,0,110.2,13.34,14.40,39.7
"2010-10-14 01:31:00",245283,1.763,73.28,6.862,1.317,14.93,105.5976,13.6,14.6,36.9,0,110.2,13.34,14.40,35.3
"2010-10-14 01:31:30",245284,0.547,64.26,0.602,0.018,12.25,105.6002,13.61,14.45,36.75,0,110.2,13.38,14.41,26.3
"2010-10-14 01:32:00",245285,0.613,63.37,0.472,0.037,11.9,105.6035,13.62,14.46,36.78,0,110.2,13.38,14.42,25.4
"2010-10-14 01:32:30",245286,0.677,60.92,1.131,0.01,12.02,105.6065,13.63,14.46,36.79,0,110.2,13.38,14.42,22.9
"2010-10-14 01:33:00",245287,0.775,62.18,0.85,0.027,12.34,105.605,13.62,14.46,36.78,0,110.2,13.38,14.42,24.2
"2010-10-14 01:33:30",245288,0.887,64.15,0.767,0,12.8,105.6083,13.63,14.45,36.75,0,110.2,13.38,14.43,26.2
"2010-10-14 01:34:00",245289,0.942,65.29,0.533,0.033,13.12,105.6099,13.63,14.46,36.65,0,110.2,13.39,14.43,27.3
"2010-10-14 01:34:30",245290,0.996,65.33,0.529,0.035,13.51,105.6063,13.62,14.44,36.59,0,110.2,13.38,14.42,27.3
"2010-10-14 01:35:00",245291,1.084,63.9,0.901,0.024,13.73,105.5961,13.6,14.45,36.44,0,110.2,13.39,14.40,25.9
"2010-10-14 01:35:30",245292,1.114,63.15,0.928,0.033,14.08,105.5862,13.57,14.44,36.52,0,110.2,13.39,14.37,25.2
"2010-10-14 01:36:00",245293,1.167,63.44,0.428,0.014,14.38,105.5837,13.57,14.44,36.51,0,110.2,13.39,14.37,25.4
"2010-10-14 01:36:30",245294,1.17,62.8,0.425,0,14.59,105.584,13.57,14.44,36.48,0,110.2,13.39,14.37,24.8
"2010-10-14 01:37:00",245295,1.61,62.75,3.912,0.983,15.34,105.586,13.57,14.45,36.56,0,110.2,13.35,14.37,24.8
"2010-10-14 01:37:30",245296,1.734,59.5,5.152,1.038,15.49,105.5869,13.57,14.55,36.84,0,110.2,13.35,14.37,21.5
"2010-10-14 01:38:00",245297,2.368,61.77,7.177,1.365,16.32,105.5872,13.58,14.46,36.78,0,110.2,13.34,14.38,23.8
"2010-10-14 01:38:30",245298,2.44,62.25,7.164,1.356,16.54,105.5872,13.58,14.58,36.96,0,110.2,13.34,14.38,24.2
"2010-10-14 01:39:00",245299,1.325,62.23,4.043,0.482,14.84,105.5872,13.58,14.52,36.9,0,110.2,13.38,14.38,24.2
"2010-10-14 01:39:30",245300,2.165,68.04,7.134,1.291,15.9,105.5869,13.57,14.56,36.89,0,110.2,13.34,14.37,30.0
"2010-10-14 01:40:00",245301,1.666,64.19,4.023,0.951,14.03,105.5869,13.57,14.53,36.88,0,110.2,13.34,14.37,26.2
"2010-10-14 01:40:30",245302,1.373,62.31,2.627,0.246,13.43,105.5875,13.58,14.53,37,0,110.2,13.38,14.38,24.3
"2010-10-14 01:41:00",245303,2.512,67.11,6.373,1.344,14.37,105.5858,13.57,14.43,36.86,0,110.2,13.34,14.37,29.1
"2010-10-14 01:41:30",245304,1.486,63.92,1.306,0.053,12.57,105.5793,13.56,14.38,36.9,0,110.2,13.38,14.35,25.9
"2010-10-14 01:42:00",245305,1.506,66.27,0.646,0.027,12.58,105.5621,13.51,14.38,36.93,0,110.2,13.38,14.31,28.3
"2010-10-14 01:42:30",245306,1.526,68.73,0.78,0.023,12.8,105.554,13.49,14.37,36.95,0,110.2,13.38,14.29,30.7
"2010-10-14 01:43:00",245307,1.515,69.36,0.486,0.006,13.19,105.5537,13.49,14.35,36.98,0,110.2,13.38,14.29,31.4
"2010-10-14 01:43:30",245308,1.51,70.34,0.649,0.028,13.54,105.5537,13.49,14.34,37,0,110.2,13.39,14.29,32.3
"2010-10-14 01:44:00",245309,1.505,71.95,0.675,0.031,13.9,105.5537,13.49,14.34,37.03,0,110.2,13.39,14.29,33.9
"2010-10-14 01:44:30",245310,1.456,73.75,0.56,0.019,14.23,105.5537,13.49,14.34,37.04,0,110.2,13.39,14.29,35.8
"2010-10-14 01:45:00",245311,1.448,74.79,0.477,0.028,14.42,105.5537,13.49,14.33,37.05,0,110.2,13.39,14.29,36.8
"2010-10-14 01:45:30",245312,2.183,79.39,6.26,1.242,15.67,105.5537,13.49,14.32,37.06,0,110.2,13.36,14.29,41.4
"2010-10-14 01:46:00",245313,2.425,83.6,7.017,1.338,16.81,105.5537,13.49,14.49,37.24,0,110.2,13.36,14.29,45.6
"2010-10-14 01:46:30",245314,2.62,81.4,7.746,1.331,16.45,105.5537,13.49,14.37,37.14,0,110.2,13.36,14.29,43.4
"2010-10-14 01:47:00",245315,2.546,81.5,7.149,1.336,16.49,105.5537,13.49,14.49,37.23,0,110.2,13.36,14.29,43.5
"2010-10-14 01:47:30",245316,1.452,78.68,3.249,0.037,13.77,105.5449,13.47,14.31,37.16,0,110.2,13.39,14.27,40.7
"2010-10-14 01:48:00",245317,2.151,84.9,6.481,1.185,15.43,105.5218,13.41,14.47,37.39,0,110.2,13.35,14.21,46.9
"2010-10-14 01:48:30",245318,2.53,87.6,6.638,1.353,15.27,105.5198,13.4,14.36,37.33,0,110.2,13.35,14.20,49.6